map of KTKV home
Great Circle Mapper logo
KTKV - Airport
Location
City:  Tomahawk, Wisconsin, United States
Name:Tomahawk Regional
ICAO:KTKV
FAA:TKV

Details
Type:Airport (Airfield)
Use:Public/Civil
Latitude:4528'10"N (45.469361)
Longitude:8948'18"W (-89.804888)
Datum:WGS 1984
Elevation:1487 ft (453 m)
Variation:2.61W (WMM2015 magnetic declination)
-0.05 annual change
Runways:1
Longest:4401 × 75 ft (1341 × 23 m), paved

Time
Time Zone:UTC-6 (DST-5)
Local Time:

Weather
METAR:KTKV 032035Z AUTO 00000KT 10SM SCT055 SCT070 SCT090 25/10 A2980 RMK AO2 T02490098

Related Locations
Nearby:
Farthest:MGV: 10901 mi / 17543 km
Margaret River, WA, AU

Find:

   beyond  
but within

Other Information
Maps:
NOTAMs:
Links:
Sources:

  
flag of United States
flag of Wisconsin
  

Sectional Chart

Flight Planning
at skyvector.com

Satellite Image

Google Maps Satellite View

 

Copyright © 2004-2015 Karl L. Swartz. All rights reserved.
The Great Circle Mapper name and logo are trademarks of the Great Circle Mapper.
All other trademarks mentioned herein belong to their respective owners.
Please see credits for attibutions and further copyright information.

  Follow gcmap on Facebook Follow gcmap on Twitter Follow gcmap on Google+

hCard Microformat

Geo Microformat